Hartford, CT

5:46 AM EST on November 25, 2017 (GMT -0500)
Hartford-brainard

Weather History for KHFD - November, 2012

Change the Weather History Date:

Friday, November 9, 2012

  Actual Average Record
Temperature  
Mean Temperature 44 °F -  
Max Temperature 53 °F 52 °F 72 °F (1945)
Min Temperature 36 °F 35 °F 19 °F (1952)
Degree Days  
Heating Degree Days 20    
Moisture  
Dew Point 23 °F    
Average Humidity 47    
Maximum Humidity 71    
Minimum Humidity 24    
Precipitation  
Precipitation 0.00 in - - ()
Sea Level Pressure  
Sea Level Pressure 30.01 in    
Wind  
Wind Speed 8 mph (NW)    
Max Wind Speed 14 mph    
Max Gust Speed 21 mph    
Visibility 10 miles    
Events      
Averages and records for this station are not official NWS values.
T = Trace of Precipitation, MM = Missing Value Source: NWS Daily Summary

Daily Weather History Graph

Daily Weather History Graph

Search for Another Location

Airport or City:

Trip Planner

Search our weather history database for the weather conditions in past years. The results will help you decide how hot, cold, wet, or windy it might be!

Date:

Astronomy

Nov. 09, 2012 Rise Set
Actual Time 6:33 AM EST 4:35 PM EST
Civil Twilight 6:03 AM EST 5:04 PM EST
Nautical Twilight 5:30 AM EST 5:38 PM EST
Astronomical Twilight 4:57 AM EST 6:10 PM EST
Moon 1:24 AM EST (11/9) 1:50 PM EST (11/9)
Length of Visible Light 11h 01m
Length of Day
10h 02m
Waning Crescent, 23% of the Moon is Illuminated
Nov 9
Waning Crescent
Nov 13
New
Nov 20
First Quarter
Nov 28
Full
Dec 6
Last Quarter

Hourly Weather History & Observations

Time (EST) Temp. Windchill Dew Point Humidity Pressure Visibility Wind Dir Wind Speed Gust Speed Precip Events Conditions
12:53 AM 39.9 °F 34.5 °F 28.0 °F 63% 29.85 in 10.0 mi NNW 8.1 mph - N/A   Overcast
1:53 AM 39.0 °F 32.8 °F 27.0 °F 62% 29.86 in 10.0 mi NNW 9.2 mph - N/A   Clear
2:53 AM 39.0 °F 32.8 °F 27.0 °F 62% 29.87 in 10.0 mi NNW 9.2 mph - N/A   Clear
3:53 AM 37.9 °F 30.9 °F 26.1 °F 62% 29.89 in 10.0 mi NNW 10.4 mph - N/A   Clear
4:53 AM 37.0 °F 31.6 °F 25.0 °F 62% 29.92 in 10.0 mi NW 6.9 mph - N/A   Clear
5:53 AM 37.0 °F 28.9 °F 23.0 °F 57% 29.94 in 10.0 mi NNW 12.7 mph 20.7 mph N/A   Clear
6:53 AM 36.0 °F 28.5 °F 21.9 °F 57% 29.96 in 10.0 mi NW 10.4 mph - N/A   Clear
7:53 AM 39.0 °F 34.8 °F 21.9 °F 50% 29.99 in 10.0 mi NW 5.8 mph - N/A   Clear
8:53 AM 41.0 °F 35.2 °F 21.9 °F 47% 29.99 in 10.0 mi NW 9.2 mph - N/A   Clear
9:53 AM 44.1 °F 40.1 °F 21.9 °F 42% 30.00 in 10.0 mi NNW 6.9 mph - N/A   Clear
10:53 AM 48.0 °F - 19.0 °F 32% 30.01 in 10.0 mi NW 13.8 mph 20.7 mph N/A   Clear
11:53 AM 50.0 °F - 18.0 °F 28% 30.00 in 10.0 mi NW 10.4 mph - N/A   Clear
12:53 PM 52.0 °F - 19.0 °F 27% 30.00 in 10.0 mi WNW 11.5 mph - N/A   Clear
1:53 PM 52.0 °F - 19.0 °F 27% 30.01 in 10.0 mi WNW 11.5 mph 19.6 mph N/A   Clear
2:53 PM 53.1 °F - 19.0 °F 26% 30.01 in 10.0 mi NW 8.1 mph - N/A   Clear
3:53 PM 51.1 °F - 15.1 °F 24% 30.03 in 10.0 mi WNW 11.5 mph 20.7 mph N/A   Clear
4:53 PM 48.9 °F - 17.1 °F 28% 30.06 in 10.0 mi NNW 6.9 mph - N/A   Clear
5:53 PM 48.0 °F - 18.0 °F 30% 30.09 in 10.0 mi NNW 8.1 mph - N/A   Clear
6:53 PM 46.0 °F 44.8 °F 21.0 °F 37% 30.12 in 10.0 mi NW 3.5 mph - N/A   Clear
7:53 PM 46.0 °F - 26.1 °F 46% 30.13 in 10.0 mi Calm Calm - N/A   Clear
8:53 PM 42.1 °F - 30.0 °F 62% 30.13 in 10.0 mi Calm Calm - N/A   Clear
9:53 PM 39.0 °F - 30.0 °F 70% 30.14 in 10.0 mi Calm Calm - N/A   Mostly Cloudy
10:53 PM 43.0 °F - 34.0 °F 71% 30.15 in 10.0 mi Calm Calm - N/A   Overcast